Location: Newark
(49.3000°N, 9.4667°E)
Time: 01:54:17
(UTC+00:00)

Vanguard 2 Rocket - All Passes

Search period start: 21 May 2019 00:00
Search period end: 31 May 2019 00:00
Orbit: 555 x 3325 km, 32.9° (Epoch: 19 May)

Date Brightness Start Highest point End Pass type
(mag) Time Alt. Az. Time Alt. Az. Time Alt. Az.
21 May - 03:03:57 10° SSE 03:07:01 11° SE 03:09:54 10° SE daylight
21 May - 05:09:39 10° SSW 05:21:21 24° SSE 05:29:43 10° ESE daylight
21 May - 07:24:13 10° SW 07:35:16 30° S 07:42:22 10° ESE daylight
21 May - 09:40:58 10° WSW 09:47:55 21° SSW 09:52:47 10° SSE daylight
22 May - 04:09:28 10° SSW 04:21:00 21° SSE 04:29:48 10° ESE daylight
22 May - 06:22:44 10° SW 06:35:20 31° S 06:43:34 10° ESE daylight
22 May - 08:39:11 10° WSW 08:48:39 28° SSW 08:54:49 10° SE daylight
22 May - 10:58:12 10° SW 11:00:20 11° SW 11:02:15 10° SSW daylight
23 May - 03:10:14 10° S 03:20:33 18° SSE 03:29:03 10° ESE daylight
23 May - 05:21:28 10° SW 05:35:07 30° SSE 05:44:26 10° ESE daylight
23 May - 07:37:22 10° WSW 07:49:04 32° S 07:56:28 10° SE daylight
23 May - 09:55:04 10° WSW 10:01:26 19° SSW 10:06:06 10° S daylight
24 May - 02:12:43 10° SSE 02:20:03 13° SE 02:26:39 10° ESE visible
24 May - 04:20:36 10° SSW 04:34:39 28° SSE 04:44:52 10° ESE daylight
24 May - 06:35:34 10° WSW 06:49:07 35° S 06:57:47 10° ESE daylight
24 May - 08:52:53 10° WSW 09:02:16 26° SSW 09:08:30 10° SSE daylight
25 May - 03:20:22 10° SSW 03:34:02 25° SSE 03:44:45 10° ESE daylight
25 May - 05:33:54 10° SW 05:48:51 36° S 05:58:47 10° ESE daylight
25 May - 07:50:47 10° WSW 08:02:44 32° SSW 08:10:20 10° SE daylight
25 May - 10:09:42 10° WSW 10:14:46 15° SW 10:18:46 10° S daylight
26 May - 02:21:05 10° S 02:33:22 20° SSE 02:43:49 10° ESE visible
26 May - 04:32:34 10° SW 04:48:17 34° SSE 04:59:23 10° ESE daylight
26 May - 06:48:43 10° WSW 07:02:49 37° S 07:11:47 10° SE daylight
26 May - 09:06:51 10° WSW 09:15:42 23° SSW 09:21:49 10° SSE daylight
27 May - 01:23:19 10° SSE 01:32:46 15° SE 01:41:27 10° ESE visible
27 May - 03:31:46 10° SSW 03:47:31 32° SSE 03:59:34 10° ESE daylight
27 May - 05:46:46 10° WSW 06:02:31 39° S 06:12:53 10° ESE daylight
27 May - 08:04:25 10° WSW 08:16:16 30° SSW 08:23:57 10° SSE daylight
27 May - 10:26:06 10° WSW 10:27:54 11° SW 10:29:32 10° SW daylight
28 May - 00:31:49 10° SE 00:32:21 10° SE 00:32:52 10° SE visible
28 May - 02:31:41 10° SSW 02:46:40 27° SSE 02:59:09 10° ESE visible
28 May - 04:45:07 10° SW 05:01:53 39° S 05:13:38 10° ESE daylight
28 May - 07:02:07 10° WSW 07:16:24 36° SSW 07:25:36 10° SE daylight
28 May - 09:21:14 10° WSW 09:28:56 18° SW 09:34:35 10° S daylight
29 May - 01:32:32 10° S 01:45:52 22° SE 01:57:55 10° ESE visible
29 May - 03:43:55 10° SW 04:01:00 37° SSE 04:13:57 10° ESE daylight
29 May - 05:59:58 10° WSW 06:16:07 40° S 06:26:49 10° ESE daylight
29 May - 08:18:19 10° W 08:29:36 26° SSW 08:37:14 10° SSE daylight
30 May - 00:34:50 10° S 00:45:15 17° SE 00:55:17 10° ESE visible
30 May - 02:43:20 10° SSW 03:00:00 34° SSE 03:13:47 10° ESE visible
30 May - 04:58:04 10° WSW 05:15:27 42° S 05:27:39 10° ESE daylight
30 May - 07:15:44 10° WSW 07:29:51 34° SSW 07:39:09 10° SE daylight
30 May - 09:36:31 10° WSW 09:41:56 14° SW 09:46:21 10° SSW daylight
30 May - 23:41:03 10° SE 23:44:54 11° SE 23:48:45 10° ESE visible
